Scappoose, OR

10:37 PM PDT on April 26, 2017 (GMT -0700)
Scappoose Industrial

Weather History for KSPB - June, 2013

Change the Weather History Date:

Wednesday, June 5, 2013

  Actual Average Record
Temperature  
Mean Temperature 68 °F -  
Max Temperature 81 °F - 96 °F (2016)
Min Temperature 55 °F - 41 °F (2012)
Degree Days  
Heating Degree Days 0    
Month to date heating degree days 11  
Since 1 June heating degree days 11  
Since 1 July heating degree days 4628  
Cooling Degree Days 3    
Month to date cooling degree days 4  
Year to date cooling degree days 12  
Since 1 June cooling degree days 4  
Growing Degree Days 18 (Base 50)    
Moisture  
Dew Point 52 °F    
Average Humidity 56    
Maximum Humidity 72    
Minimum Humidity 39    
Precipitation  
Precipitation 0.00 in - 0.27 in (2007)
Month to date precipitation T  
Year to date precipitation 12.32  
Sea Level Pressure  
Sea Level Pressure 30.02 in    
Wind  
Wind Speed 8 mph (North)    
Max Wind Speed 16 mph    
Max Gust Speed 21 mph    
Visibility 10 miles    
Events      
T = Trace of Precipitation, MM = Missing Value Source: NWS Daily Summary

Daily Weather History Graph

Daily Weather History Graph

Search for Another Location

Airport or City:

Trip Planner

Search our weather history database for the weather conditions in past years. The results will help you decide how hot, cold, wet, or windy it might be!

Date:

Astronomy

Jun. 05, 2013 Rise Set
Actual Time 5:22 AM PDT 8:57 PM PDT
Civil Twilight 4:45 AM PDT 9:35 PM PDT
Nautical Twilight 3:55 AM PDT 10:25 PM PDT
Astronomical Twilight 2:49 AM PDT 11:31 PM PDT
Moon 3:38 AM PDT (6/5) 6:23 PM PDT (6/5)
Length of Visible Light 16h 49m
Length of Day
15h 34m
Waning Crescent, 7% of the Moon is Illuminated
Jun 5
Waning Crescent
Jun 8
New
Jun 16
First Quarter
Jun 23
Full
Jun 29
Last Quarter

Hourly Weather History & Observations

Time (PDT) Temp. Heat Index Dew Point Humidity Pressure Visibility Wind Dir Wind Speed Gust Speed Precip Events Conditions
12:53 AM 66.0 °F - 48.9 °F 54% 30.01 in 10.0 mi North 8.1 mph - N/A   Clear
1:53 AM 64.9 °F - 46.9 °F 52% 30.01 in 10.0 mi NNW 8.1 mph - N/A   Clear
2:53 AM 63.0 °F - 46.0 °F 54% 30.02 in 10.0 mi North 8.1 mph - N/A   Clear
3:53 AM 59.0 °F - 46.9 °F 64% 30.02 in 10.0 mi North 6.9 mph - N/A   Clear
4:53 AM 60.1 °F - 45.0 °F 57% 30.03 in 10.0 mi NNW 6.9 mph - N/A   Clear
5:53 AM 55.9 °F - 46.9 °F 72% 30.04 in 10.0 mi NNW 3.5 mph - N/A   Clear
6:53 AM 61.0 °F - 46.9 °F 60% 30.05 in 10.0 mi North 3.5 mph - N/A   Clear
7:53 AM 64.0 °F - 46.9 °F 54% 30.06 in 10.0 mi NNE 4.6 mph - N/A   Clear
8:53 AM 66.9 °F - 50.0 °F 54% 30.07 in 10.0 mi NNE 5.8 mph - N/A   Clear
9:53 AM 69.1 °F - 52.0 °F 54% 30.07 in 10.0 mi North 8.1 mph - N/A   Clear
10:53 AM 72.0 °F - 54.0 °F 53% 30.07 in 10.0 mi NNE 6.9 mph - N/A   Clear
11:53 AM 75.0 °F - 55.9 °F 51% 30.06 in 10.0 mi Variable 5.8 mph - N/A   Clear
12:53 PM 77.0 °F - 53.1 °F 43% 30.04 in 10.0 mi Variable 4.6 mph - N/A   Clear
1:53 PM 80.1 °F 80.1 °F 55.0 °F 42% 30.03 in 10.0 mi NNE 11.5 mph 18.4 mph N/A   Clear
2:53 PM 80.1 °F 79.9 °F 53.1 °F 39% 30.02 in 10.0 mi North 12.7 mph - N/A   Clear
3:53 PM 81.0 °F 80.8 °F 55.9 °F 42% 30.00 in 10.0 mi North 11.5 mph - N/A   Clear
4:53 PM 81.0 °F 81.0 °F 57.0 °F 44% 29.99 in 10.0 mi North 12.7 mph 19.6 mph N/A   Clear
5:53 PM 80.1 °F 80.2 °F 55.9 °F 43% 29.99 in 10.0 mi North 9.2 mph - N/A   Clear
6:53 PM 78.1 °F - 57.0 °F 48% 29.97 in 10.0 mi NNW 11.5 mph - N/A   Clear
7:53 PM 75.0 °F - 57.0 °F 53% 29.98 in 10.0 mi NNW 6.9 mph - N/A   Clear
8:53 PM 71.1 °F - 55.9 °F 59% 29.99 in 10.0 mi NW 8.1 mph - N/A   Clear
9:53 PM 66.9 °F - 55.0 °F 66% 30.00 in 10.0 mi North 5.8 mph - N/A   Clear
10:53 PM 64.9 °F - 54.0 °F 68% 30.00 in 10.0 mi NW 5.8 mph - N/A   Clear
11:53 PM 63.0 °F - 53.1 °F 70% 29.99 in 10.0 mi NNW 6.9 mph - N/A   Clear